Tracking 25723 objects as of 27-Jun-2022
HD Live streaming from Space Station
objects crossing your sky now

DMSP 5D-2 F13 DEB

Track DMSP 5D-2 F13 DEB now!
10-day predictions


NORAD ID: 42257
Int'l Code: 1995-015FX
Perigee: 714.3 km
Apogee: 807.1 km
Inclination: 98.7 °
Period: 99.9 minutes
Semi major axis: 7131 km
RCS: Unknown
Launch date: March 24, 1995
Source: United States (US)
Launch site: AIR FORCE WESTERN TEST RANGE (AFWTR)

Note: This is SATELLITE DEBRIS
aabbcc
Your satellite tracking list
Your tracking list is empty




NASA's NSSDC Master Catalog

Two Line Element Set (TLE):
1 42257U 95015FX  22176.50886421  .00003242  00000-0  98729-3 0  9991
2 42257  98.7295 274.3091 0065066  18.5122 341.8413 14.41500315348823
Source of the keplerian elements: AFSPC